AFR281 UGTB-VDPP

Flight info

Callsign AFR281
Flight time 3h 29m
Altitude 60000
Route DISKA M737 VERCA M747 SUBUT T923 ERLEV M11 RODAR A909 NINOP B475 DAVET P173 TAPIS L509 SULOM A466 ASARI L509 GGC R460 CEA L507 BKK N506 BOKAK SOBEN3A
Aircraft CONC/H-SDE2E3FGHIRWY/S

Departure

Time 2026-04-14 17:28
Airport Tbilisi International Airport (UGTB)

Arrival

Time 2026-04-14 20:58
Airport Phnom Penh International Airport (VDPP)
Time Latitude Longitude Altitude Speed Heading
2026-04-14 17:07 41.66892 44.96324 1525 ft 0 kts 41°
2026-04-14 17:20 41.66872 44.96310 1526 ft 4 kts 61°
2026-04-14 17:21 41.66854 44.96288 1524 ft 4 kts 92°
2026-04-14 17:21 41.66850 44.96256 1527 ft 4 kts 118°
2026-04-14 17:21 41.66860 44.96224 1527 ft 4 kts 130°
2026-04-14 17:21 41.66872 44.96204 1526 ft 0 kts 134°
2026-04-14 17:24 41.66863 44.96216 1525 ft 6 kts 134°
2026-04-14 17:24 41.66790 44.96316 1528 ft 14 kts 134°
2026-04-14 17:24 41.66740 44.96385 1526 ft 15 kts 134°
2026-04-14 17:25 41.66643 44.96415 1526 ft 16 kts 192°
2026-04-14 17:25 41.66524 44.96376 1528 ft 19 kts 194°
2026-04-14 17:25 41.66392 44.96331 1534 ft 20 kts 193°
2026-04-14 17:25 41.66252 44.96297 1531 ft 23 kts 180°
2026-04-14 17:26 41.66100 44.96394 1525 ft 26 kts 135°
2026-04-14 17:26 41.65973 44.96558 1529 ft 20 kts 140°
2026-04-14 17:26 41.65871 44.96574 1528 ft 13 kts 226°
2026-04-14 17:26 41.65851 44.96461 1527 ft 11 kts 283°
2026-04-14 17:27 41.65881 44.96415 1528 ft 4 kts 316°
2026-04-14 17:27 41.65887 44.96407 1528 ft 0 kts 316°
2026-04-14 17:27 41.65959 44.96315 1526 ft 47 kts 316°
2026-04-14 17:27 41.66415 44.95739 1539 ft 133 kts 317°
2026-04-14 17:28 41.67275 44.94651 1561 ft 210 kts 316°
2026-04-14 17:28 41.68470 44.93176 2230 ft 250 kts 318°
2026-04-14 17:28 41.69764 44.91664 3214 ft 250 kts 319°
2026-04-14 17:28 41.71116 44.90114 3899 ft 260 kts 319°
2026-04-14 17:29 41.72277 44.88306 4496 ft 254 kts 289°
2026-04-14 17:29 41.72378 44.85961 5193 ft 260 kts 251°
2026-04-14 17:29 41.71375 44.83968 6111 ft 271 kts 218°
2026-04-14 17:29 41.69559 44.82995 7064 ft 300 kts 185°
2026-04-14 17:30 41.67455 44.83447 8025 ft 315 kts 154°
2026-04-14 17:30 41.65737 44.85298 9052 ft 329 kts 123°
2026-04-14 17:30 41.64840 44.88199 10129 ft 351 kts 95°
2026-04-14 17:30 41.64830 44.91560 11063 ft 373 kts 88°
2026-04-14 17:31 41.64515 44.95089 11950 ft 395 kts 109°
2026-04-14 17:31 41.63401 44.98550 12882 ft 416 kts 121°
2026-04-14 17:31 41.61757 45.01844 13813 ft 437 kts 130°
2026-04-14 17:31 41.59776 45.05057 14667 ft 458 kts 132°
2026-04-14 17:32 41.57705 45.08347 15482 ft 477 kts 129°
2026-04-14 17:32 41.55703 45.11932 16298 ft 482 kts 127°
2026-04-14 17:32 41.53748 45.15577 17104 ft 485 kts 127°
2026-04-14 17:32 41.51777 45.19266 17938 ft 492 kts 127°
2026-04-14 17:33 41.49775 45.22994 18740 ft 496 kts 127°
2026-04-14 17:33 41.47745 45.26735 19491 ft 500 kts 128°
2026-04-14 17:33 41.45576 45.30384 20268 ft 505 kts 133°
2026-04-14 17:34 41.40772 45.37358 21835 ft 519 kts 135°
2026-04-14 17:34 41.38277 45.40909 22685 ft 529 kts 135°
2026-04-14 17:34 41.35742 45.44519 23563 ft 543 kts 135°
2026-04-14 17:34 41.33100 45.48283 24327 ft 569 kts 135°
2026-04-14 17:35 41.30345 45.52210 25055 ft 592 kts 135°
2026-04-14 17:35 41.27487 45.56279 25780 ft 608 kts 135°
2026-04-14 17:35 41.24571 45.60423 26516 ft 620 kts 135°
2026-04-14 17:35 41.21787 45.64860 27317 ft 631 kts 123°
2026-04-14 17:36 41.19819 45.70044 28206 ft 639 kts 110°
2026-04-14 17:36 41.18440 45.75680 29155 ft 646 kts 108°
2026-04-14 17:36 41.16981 45.81357 29947 ft 654 kts 110°
2026-04-14 17:36 41.15456 45.87103 30523 ft 663 kts 110°
2026-04-14 17:37 41.13912 45.92932 30957 ft 675 kts 110°
2026-04-14 17:37 41.12338 45.98874 31399 ft 689 kts 110°
2026-04-14 17:37 41.10730 46.04937 31853 ft 702 kts 110°
2026-04-14 17:37 41.09092 46.11098 32304 ft 714 kts 110°
2026-04-14 17:38 41.07427 46.17354 32757 ft 724 kts 110°
2026-04-14 17:38 41.05738 46.23678 33215 ft 734 kts 110°
2026-04-14 17:38 41.04042 46.30020 33684 ft 743 kts 110°
2026-04-14 17:38 41.02301 46.36508 34188 ft 752 kts 110°
2026-04-14 17:39 41.00541 46.43052 34600 ft 760 kts 110°
2026-04-14 17:39 40.98756 46.49671 34994 ft 767 kts 110°
2026-04-14 17:39 40.96946 46.56364 35421 ft 774 kts 110°
2026-04-14 17:39 40.95121 46.63095 35839 ft 780 kts 110°
2026-04-14 17:40 40.93282 46.69862 36260 ft 785 kts 110°
2026-04-14 17:40 40.91423 46.76681 36675 ft 790 kts 110°
2026-04-14 17:40 40.89843 46.83658 37150 ft 795 kts 100°
2026-04-14 17:40 40.89236 46.90688 37692 ft 797 kts 92°
2026-04-14 17:41 40.88974 46.98019 38148 ft 801 kts 94°
2026-04-14 17:41 40.88533 47.05384 38556 ft 805 kts 95°
2026-04-14 17:41 40.88081 47.12782 38953 ft 808 kts 95°
2026-04-14 17:41 40.87613 47.20202 39166 ft 813 kts 95°
2026-04-14 17:42 40.87138 47.27687 39183 ft 821 kts 95°
2026-04-14 17:42 40.86171 47.42787 39199 ft 837 kts 95°
2026-04-14 17:43 40.85161 47.58273 39196 ft 852 kts 95°
2026-04-14 17:43 40.84114 47.74012 39207 ft 870 kts 95°
2026-04-14 17:44 40.83021 47.90100 39583 ft 887 kts 95°
2026-04-14 17:44 40.82460 47.98241 39915 ft 895 kts 95°
2026-04-14 17:44 40.81886 48.06467 40255 ft 904 kts 95°
2026-04-14 17:44 40.81301 48.14785 40616 ft 914 kts 96°
2026-04-14 17:45 40.80702 48.23185 40983 ft 925 kts 96°
2026-04-14 17:45 40.80099 48.31584 41334 ft 938 kts 96°
2026-04-14 17:45 40.79471 48.40216 41683 ft 953 kts 96°
2026-04-14 17:45 40.78824 48.49029 42039 ft 968 kts 96°
2026-04-14 17:46 40.78163 48.57939 42406 ft 984 kts 96°
2026-04-14 17:46 40.77484 48.66995 42771 ft 1001 kts 96°
2026-04-14 17:46 40.76784 48.76221 43148 ft 1018 kts 96°
2026-04-14 17:46 40.76068 48.85582 43492 ft 1034 kts 96°
2026-04-14 17:47 40.75331 48.95094 43733 ft 1051 kts 96°
2026-04-14 17:47 40.74574 49.04762 43898 ft 1069 kts 96°
2026-04-14 17:47 40.73796 49.14584 44001 ft 1085 kts 96°
2026-04-14 17:47 40.73024 49.24535 44320 ft 1093 kts 97°
2026-04-14 17:48 40.71914 49.34454 44742 ft 1094 kts 99°
2026-04-14 17:48 40.70869 49.44384 45076 ft 1096 kts 99°
2026-04-14 17:48 40.69766 49.54329 45396 ft 1097 kts 98°
2026-04-14 17:48 40.68677 49.64308 45724 ft 1099 kts 99°
2026-04-14 17:49 40.67575 49.74268 46041 ft 1100 kts 99°
2026-04-14 17:49 40.66457 49.84277 46289 ft 1102 kts 99°
2026-04-14 17:49 40.65349 49.94139 46528 ft 1104 kts 99°
2026-04-14 17:49 40.64214 50.04150 46774 ft 1106 kts 99°
2026-04-14 17:50 40.63069 50.14167 47005 ft 1107 kts 99°
2026-04-14 17:50 40.61916 50.24184 47244 ft 1108 kts 99°
2026-04-14 17:50 40.60748 50.34236 47498 ft 1110 kts 99°
2026-04-14 17:50 40.59573 50.44284 47748 ft 1110 kts 99°
2026-04-14 17:51 40.58390 50.54323 47989 ft 1111 kts 99°
2026-04-14 17:51 40.57192 50.64396 48242 ft 1112 kts 99°
2026-04-14 17:51 40.55988 50.74453 48496 ft 1112 kts 99°
2026-04-14 17:51 40.54775 50.84512 48732 ft 1113 kts 100°
2026-04-14 17:52 40.53567 50.94448 48933 ft 1114 kts 100°
2026-04-14 17:52 40.52333 51.04525 49146 ft 1115 kts 100°
2026-04-14 17:52 40.51093 51.14583 49362 ft 1115 kts 100°
2026-04-14 17:52 40.49843 51.24641 49569 ft 1116 kts 100°
2026-04-14 17:53 40.48585 51.34691 49758 ft 1116 kts 100°
2026-04-14 17:53 40.47315 51.44755 49963 ft 1117 kts 101°
2026-04-14 17:53 40.45759 51.54762 50224 ft 1114 kts 108°
2026-04-14 17:53 40.43453 51.64458 50476 ft 1112 kts 107°
2026-04-14 17:54 40.41308 51.74213 50718 ft 1113 kts 108°
2026-04-14 17:54 40.39117 51.83964 50922 ft 1113 kts 107°
2026-04-14 17:54 40.36948 51.93712 51127 ft 1113 kts 108°
2026-04-14 17:54 40.34766 52.03450 51327 ft 1113 kts 108°
2026-04-14 17:55 40.32574 52.13192 51539 ft 1114 kts 108°
2026-04-14 17:55 40.30374 52.22921 51747 ft 1114 kts 108°
2026-04-14 17:55 40.28207 52.32460 51928 ft 1114 kts 108°
2026-04-14 17:55 40.25978 52.42230 52059 ft 1115 kts 108°
2026-04-14 17:56 40.23750 52.51954 52072 ft 1116 kts 108°
2026-04-14 17:56 40.19245 52.71483 52083 ft 1120 kts 108°
2026-04-14 17:57 40.14701 52.91012 52093 ft 1124 kts 108°
2026-04-14 17:57 40.10136 53.10470 52074 ft 1128 kts 109°
2026-04-14 17:58 40.05489 53.30106 52060 ft 1131 kts 109°
2026-04-14 17:58 40.00806 53.49727 52044 ft 1134 kts 109°
2026-04-14 17:59 39.96064 53.69432 52026 ft 1137 kts 109°
2026-04-14 17:59 39.91317 53.88986 52038 ft 1140 kts 109°
2026-04-14 18:00 39.86493 54.08701 52036 ft 1142 kts 109°
2026-04-14 18:00 39.79199 54.38199 52008 ft 1146 kts 110°
2026-04-14 18:01 39.74267 54.57936 51992 ft 1148 kts 110°
2026-04-14 18:01 39.69305 54.77638 51997 ft 1151 kts 110°
2026-04-14 18:02 39.64284 54.97408 51997 ft 1154 kts 110°
2026-04-14 18:02 39.59218 55.17197 52012 ft 1157 kts 110°
2026-04-14 18:03 39.54104 55.37011 52011 ft 1159 kts 110°
2026-04-14 18:03 39.49296 55.56969 52028 ft 1164 kts 106°
2026-04-14 18:04 39.44772 55.77093 52105 ft 1165 kts 108°
2026-04-14 18:04 39.40134 55.97205 52123 ft 1168 kts 108°
2026-04-14 18:05 39.35488 56.17218 52097 ft 1172 kts 108°
2026-04-14 18:05 39.30764 56.37405 52081 ft 1174 kts 108°
2026-04-14 18:06 39.25991 56.57629 52034 ft 1177 kts 108°
2026-04-14 18:06 39.21178 56.77847 52034 ft 1180 kts 109°
2026-04-14 18:07 39.16312 56.98114 51988 ft 1182 kts 109°
2026-04-14 18:07 39.11416 57.18329 51953 ft 1182 kts 109°
2026-04-14 18:08 39.06518 57.38384 51940 ft 1181 kts 109°
2026-04-14 18:08 39.01559 57.58519 51974 ft 1182 kts 109°
2026-04-14 18:09 38.96552 57.78677 51932 ft 1182 kts 109°
2026-04-14 18:09 38.91500 57.98852 51904 ft 1186 kts 109°
2026-04-14 18:10 38.86413 58.18995 51916 ft 1186 kts 109°
2026-04-14 18:10 38.81314 58.39023 51912 ft 1189 kts 110°
2026-04-14 18:11 38.76143 58.59173 51908 ft 1189 kts 110°
2026-04-14 18:11 38.70933 58.79302 51903 ft 1190 kts 110°
2026-04-14 18:12 38.66542 58.96149 51899 ft 1192 kts 110°
2026-04-14 18:12 38.61305 59.16091 51895 ft 1188 kts 110°
2026-04-14 18:13 38.55984 59.36196 51876 ft 1191 kts 110°
2026-04-14 18:13 38.50642 59.56214 51895 ft 1190 kts 110°
2026-04-14 18:14 38.45258 59.76235 51856 ft 1192 kts 110°
2026-04-14 18:14 38.39856 59.96174 51871 ft 1192 kts 111°
2026-04-14 18:15 38.34400 60.16150 51829 ft 1191 kts 111°
2026-04-14 18:15 38.28952 60.35944 51844 ft 1195 kts 111°
2026-04-14 18:16 38.23421 60.55890 51824 ft 1195 kts 111°
2026-04-14 18:16 38.17845 60.75846 51810 ft 1195 kts 111°
2026-04-14 18:17 38.12230 60.95789 51818 ft 1198 kts 111°
2026-04-14 18:17 38.06590 61.15670 51825 ft 1199 kts 111°
2026-04-14 18:18 38.00902 61.35574 51829 ft 1198 kts 111°
2026-04-14 18:18 37.95175 61.55463 51833 ft 1197 kts 111°
2026-04-14 18:19 37.89467 61.75143 51836 ft 1197 kts 112°
2026-04-14 18:19 37.83685 61.94930 51851 ft 1196 kts 112°
2026-04-14 18:20 37.77889 62.14625 51854 ft 1196 kts 112°
2026-04-14 18:20 37.72062 62.34280 51842 ft 1194 kts 112°
2026-04-14 18:21 37.66205 62.53897 51846 ft 1193 kts 112°
2026-04-14 18:21 37.63261 62.63706 51961 ft 1192 kts 112°
2026-04-14 18:21 37.60357 62.73348 52150 ft 1192 kts 112°
2026-04-14 18:22 37.57402 62.83125 52350 ft 1194 kts 112°
2026-04-14 18:22 37.54439 62.92892 52551 ft 1190 kts 112°
2026-04-14 18:22 37.51473 63.02633 52762 ft 1193 kts 112°
2026-04-14 18:22 37.48491 63.12395 52916 ft 1192 kts 112°
2026-04-14 18:23 37.45501 63.22150 53121 ft 1192 kts 112°
2026-04-14 18:23 37.42507 63.31882 53319 ft 1191 kts 112°
2026-04-14 18:23 37.39511 63.41591 53527 ft 1191 kts 112°
2026-04-14 18:23 37.36494 63.51333 53697 ft 1191 kts 113°
2026-04-14 18:24 37.33484 63.61014 53900 ft 1190 kts 113°
2026-04-14 18:24 37.30460 63.70709 54106 ft 1190 kts 113°
2026-04-14 18:24 37.27473 63.80259 54292 ft 1189 kts 113°
2026-04-14 18:24 37.24441 63.89913 54476 ft 1188 kts 113°
2026-04-14 18:25 37.21416 63.99516 54675 ft 1175 kts 113°
2026-04-14 18:25 37.18416 64.09006 54860 ft 1164 kts 113°
2026-04-14 18:25 37.15422 64.18444 55059 ft 1165 kts 113°
2026-04-14 18:25 37.12414 64.27899 55283 ft 1168 kts 113°
2026-04-14 18:26 37.09393 64.37362 55456 ft 1168 kts 113°
2026-04-14 18:26 37.06369 64.46804 55662 ft 1170 kts 113°
2026-04-14 18:26 37.03320 64.56292 55880 ft 1172 kts 113°
2026-04-14 18:26 37.00311 64.65625 56088 ft 1172 kts 113°
2026-04-14 18:27 36.97248 64.75094 56268 ft 1173 kts 113°
2026-04-14 18:27 36.93935 64.84439 56529 ft 1171 kts 120°
2026-04-14 18:27 36.89703 64.93110 56901 ft 1167 kts 127°
2026-04-14 18:27 36.84893 65.01287 57135 ft 1167 kts 129°
2026-04-14 18:28 36.79945 65.09346 57319 ft 1169 kts 126°
2026-04-14 18:28 36.75519 65.17717 57604 ft 1172 kts 125°
2026-04-14 18:28 36.70948 65.26120 57850 ft 1172 kts 124°
2026-04-14 18:28 36.66452 65.34624 58007 ft 1173 kts 126°
2026-04-14 18:29 36.61918 65.43083 58220 ft 1175 kts 125°
2026-04-14 18:29 36.57387 65.51546 58411 ft 1176 kts 125°
2026-04-14 18:29 36.52839 65.60012 58615 ft 1177 kts 125°
2026-04-14 18:29 36.48287 65.68463 58782 ft 1178 kts 125°
2026-04-14 18:30 36.43701 65.76954 58979 ft 1179 kts 126°
2026-04-14 18:30 36.39125 65.85407 59175 ft 1180 kts 126°
2026-04-14 18:30 36.34537 65.93859 59337 ft 1181 kts 126°
2026-04-14 18:30 36.29943 66.02303 59458 ft 1182 kts 126°
2026-04-14 18:31 36.25334 66.10752 59561 ft 1182 kts 126°
2026-04-14 18:31 36.20726 66.19178 59623 ft 1181 kts 126°
2026-04-14 18:31 36.11485 66.36015 59749 ft 1184 kts 126°
2026-04-14 18:32 36.02221 66.52812 59806 ft 1183 kts 126°
2026-04-14 18:32 35.92906 66.69629 59933 ft 1186 kts 125°
2026-04-14 18:33 35.88667 66.78358 60063 ft 1188 kts 119°
2026-04-14 18:33 35.84680 66.87278 60077 ft 1187 kts 123°
2026-04-14 18:34 35.67861 67.22264 60099 ft 1190 kts 122°
2026-04-14 18:34 35.59365 67.39776 60145 ft 1192 kts 122°
2026-04-14 18:35 35.50844 67.57256 60076 ft 1193 kts 123°
2026-04-14 18:35 35.42288 67.74721 60079 ft 1193 kts 123°
2026-04-14 18:36 35.33711 67.92143 60057 ft 1195 kts 123°
2026-04-14 18:36 35.25074 68.09597 60082 ft 1199 kts 123°
2026-04-14 18:37 35.16468 68.26904 60088 ft 1198 kts 123°
2026-04-14 18:37 35.07773 68.44301 60114 ft 1202 kts 123°
2026-04-14 18:38 34.99020 68.61727 60083 ft 1205 kts 123°
2026-04-14 18:38 34.90209 68.79181 60091 ft 1209 kts 123°
2026-04-14 18:39 34.81366 68.96612 59992 ft 1209 kts 124°
2026-04-14 18:39 34.72487 69.14029 59953 ft 1213 kts 124°
2026-04-14 18:40 34.63613 69.31348 59981 ft 1212 kts 124°
2026-04-14 18:40 34.54670 69.48718 59999 ft 1214 kts 124°
2026-04-14 18:41 34.45685 69.66083 59974 ft 1216 kts 124°
2026-04-14 18:41 34.36648 69.83465 59949 ft 1220 kts 124°
2026-04-14 18:42 34.27624 70.00738 59952 ft 1219 kts 124°
2026-04-14 18:42 34.18533 70.18053 59982 ft 1220 kts 124°
2026-04-14 18:43 34.09400 70.35366 59952 ft 1222 kts 125°
2026-04-14 18:43 34.00223 70.52677 59987 ft 1225 kts 125°
2026-04-14 18:44 33.91001 70.69992 59961 ft 1229 kts 125°
2026-04-14 18:44 33.81786 70.87210 59975 ft 1232 kts 125°
2026-04-14 18:45 33.72495 71.04488 59871 ft 1229 kts 125°
2026-04-14 18:45 33.63175 71.21738 59884 ft 1232 kts 125°
2026-04-14 18:46 33.53827 71.38957 59814 ft 1233 kts 125°
2026-04-14 18:46 33.44430 71.56188 59864 ft 1235 kts 126°
2026-04-14 18:47 33.34990 71.73414 59825 ft 1236 kts 126°
2026-04-14 18:47 33.25579 71.90507 59876 ft 1238 kts 126°
2026-04-14 18:48 33.16076 72.07688 59900 ft 1237 kts 126°
2026-04-14 18:48 33.06545 72.24839 59850 ft 1239 kts 126°
2026-04-14 18:49 32.97040 72.41865 59905 ft 1240 kts 126°
2026-04-14 18:49 32.87452 72.58960 59877 ft 1240 kts 126°
2026-04-14 18:50 32.77892 72.75929 59887 ft 1241 kts 126°
2026-04-14 18:50 32.68257 72.92952 59884 ft 1240 kts 126°
2026-04-14 18:51 32.58595 73.09946 59897 ft 1241 kts 126°
2026-04-14 18:51 32.48904 73.26915 59815 ft 1241 kts 126°
2026-04-14 18:52 32.39249 73.43744 59869 ft 1242 kts 126°
2026-04-14 18:52 32.29528 73.60614 59800 ft 1241 kts 127°
2026-04-14 18:53 32.19775 73.77464 59859 ft 1242 kts 127°
2026-04-14 18:53 32.10051 73.94190 59784 ft 1241 kts 127°
2026-04-14 18:54 32.00237 74.10996 59849 ft 1242 kts 127°
2026-04-14 18:54 31.90417 74.27737 59856 ft 1242 kts 127°
2026-04-14 18:55 31.80562 74.44467 59857 ft 1242 kts 127°
2026-04-14 18:55 31.70685 74.61161 59863 ft 1243 kts 127°
2026-04-14 18:56 31.60849 74.77713 59786 ft 1243 kts 127°
2026-04-14 18:56 31.50933 74.94331 59819 ft 1243 kts 127°
2026-04-14 18:57 31.40989 75.10922 59821 ft 1243 kts 127°
2026-04-14 18:57 31.31019 75.27487 59838 ft 1245 kts 127°
2026-04-14 18:58 31.22723 75.41217 59745 ft 1244 kts 128°
2026-04-14 18:58 31.12697 75.57745 59806 ft 1246 kts 128°
2026-04-14 18:59 31.02653 75.74233 59833 ft 1246 kts 128°
2026-04-14 18:59 30.92589 75.90686 59828 ft 1247 kts 128°
2026-04-14 19:00 30.82489 76.07128 59861 ft 1247 kts 128°
2026-04-14 19:00 30.72371 76.23532 59782 ft 1248 kts 128°
2026-04-14 19:01 30.62291 76.39807 59793 ft 1249 kts 128°
2026-04-14 19:01 30.52120 76.56162 59835 ft 1248 kts 128°
2026-04-14 19:02 30.41956 76.72438 59840 ft 1249 kts 128°
2026-04-14 19:02 30.31853 76.88551 59847 ft 1248 kts 128°
2026-04-14 19:03 30.21629 77.04793 59825 ft 1250 kts 128°
2026-04-14 19:03 30.11355 77.21048 59830 ft 1250 kts 128°
2026-04-14 19:04 30.01071 77.37252 59824 ft 1251 kts 128°
2026-04-14 19:04 29.90821 77.53340 59838 ft 1252 kts 128°
2026-04-14 19:05 29.80490 77.69489 59765 ft 1252 kts 128°
2026-04-14 19:05 29.70117 77.85641 59803 ft 1252 kts 128°
2026-04-14 19:06 29.59754 78.01714 59841 ft 1252 kts 128°
2026-04-14 19:06 29.49369 78.17757 59806 ft 1250 kts 128°
2026-04-14 19:07 29.38954 78.33784 59830 ft 1251 kts 129°
2026-04-14 19:07 29.28587 78.49675 59767 ft 1249 kts 129°
2026-04-14 19:08 29.18155 78.65605 59811 ft 1249 kts 129°
2026-04-14 19:08 29.07703 78.81504 59831 ft 1249 kts 129°
2026-04-14 19:09 28.97248 78.97347 59761 ft 1244 kts 129°
2026-04-14 19:09 28.86856 79.13036 59817 ft 1246 kts 129°
2026-04-14 19:10 28.76378 79.28795 59741 ft 1242 kts 129°
2026-04-14 19:10 28.65934 79.44443 59781 ft 1241 kts 129°
2026-04-14 19:11 28.55457 79.60084 59731 ft 1243 kts 129°
2026-04-14 19:11 28.44989 79.75654 59759 ft 1237 kts 129°
2026-04-14 19:12 28.34510 79.91182 59795 ft 1240 kts 129°
2026-04-14 19:13 28.18789 80.14372 59777 ft 1234 kts 129°
2026-04-14 19:13 28.08288 80.29793 59800 ft 1237 kts 129°
2026-04-14 19:14 27.97758 80.45201 59808 ft 1235 kts 129°
2026-04-14 19:14 27.87280 80.60478 59834 ft 1237 kts 129°
2026-04-14 19:15 27.76695 80.75856 59782 ft 1237 kts 129°
2026-04-14 19:15 27.66150 80.91122 59775 ft 1230 kts 129°
2026-04-14 19:16 27.55587 81.06362 59799 ft 1233 kts 130°
2026-04-14 19:16 27.45019 81.21553 59726 ft 1229 kts 130°
2026-04-14 19:17 27.34466 81.36672 59789 ft 1230 kts 130°
2026-04-14 19:17 27.23942 81.51697 59791 ft 1228 kts 130°
2026-04-14 19:18 27.13369 81.66742 59746 ft 1224 kts 130°
2026-04-14 19:18 27.02773 81.81765 59783 ft 1227 kts 130°
2026-04-14 19:19 26.92167 81.96753 59718 ft 1225 kts 130°
2026-04-14 19:19 26.81643 82.11577 59757 ft 1223 kts 130°
2026-04-14 19:20 26.71025 82.26482 59781 ft 1222 kts 130°
2026-04-14 19:20 26.60417 82.41325 59746 ft 1218 kts 130°
2026-04-14 19:21 26.49808 82.56119 59793 ft 1221 kts 130°
2026-04-14 19:21 26.39173 82.70900 59788 ft 1219 kts 130°
2026-04-14 19:22 26.28562 82.85602 59753 ft 1216 kts 130°
2026-04-14 19:22 26.17921 83.00296 59793 ft 1217 kts 130°
2026-04-14 19:23 26.07285 83.14936 59752 ft 1216 kts 130°
2026-04-14 19:23 25.96701 83.29457 59784 ft 1215 kts 130°
2026-04-14 19:24 25.86044 83.44034 59794 ft 1213 kts 130°
2026-04-14 19:24 25.75375 83.58580 59769 ft 1211 kts 130°
2026-04-14 19:25 25.64738 83.73037 59788 ft 1212 kts 130°
2026-04-14 19:25 25.54058 83.87508 59787 ft 1210 kts 130°
2026-04-14 19:26 25.43395 84.01910 59772 ft 1206 kts 131°
2026-04-14 19:26 25.32796 84.16183 59797 ft 1208 kts 131°
2026-04-14 19:27 25.22121 84.30513 59799 ft 1208 kts 131°
2026-04-14 19:27 25.11428 84.44825 59803 ft 1206 kts 131°
2026-04-14 19:28 25.00722 84.59110 59805 ft 1208 kts 131°
2026-04-14 19:28 24.90016 84.73353 59780 ft 1206 kts 131°
2026-04-14 19:29 24.79309 84.87552 59819 ft 1205 kts 131°
2026-04-14 19:29 24.69081 85.02158 59918 ft 1208 kts 122°
2026-04-14 19:30 24.60631 85.18040 60005 ft 1209 kts 124°
2026-04-14 19:30 24.51731 85.33675 60039 ft 1207 kts 123°
2026-04-14 19:31 24.42772 85.49284 60028 ft 1206 kts 123°
2026-04-14 19:31 24.33794 85.64857 59984 ft 1208 kts 123°
2026-04-14 19:32 24.24826 85.80369 59940 ft 1200 kts 123°
2026-04-14 19:32 24.15852 85.95846 59956 ft 1204 kts 124°
2026-04-14 19:33 24.06873 86.11284 59968 ft 1203 kts 124°
2026-04-14 19:33 23.97877 86.26703 59943 ft 1201 kts 124°
2026-04-14 19:34 23.84418 86.49684 59900 ft 1202 kts 124°
2026-04-14 19:34 23.75372 86.65071 59885 ft 1203 kts 124°
2026-04-14 19:35 23.66314 86.80430 59827 ft 1198 kts 124°
2026-04-14 19:35 23.57273 86.95713 59821 ft 1200 kts 124°
2026-04-14 19:36 23.48208 87.10990 59796 ft 1199 kts 124°
2026-04-14 19:36 23.39121 87.26260 59730 ft 1199 kts 124°
2026-04-14 19:37 23.30064 87.41433 59764 ft 1196 kts 124°
2026-04-14 19:37 23.21031 87.56522 59796 ft 1195 kts 124°
2026-04-14 19:38 23.11935 87.71670 59784 ft 1197 kts 124°
2026-04-14 19:38 23.02849 87.86758 59787 ft 1189 kts 124°
2026-04-14 19:39 22.93763 88.01800 59796 ft 1192 kts 124°
2026-04-14 19:39 22.84669 88.16814 59799 ft 1191 kts 124°
2026-04-14 19:40 22.75566 88.31797 59785 ft 1188 kts 124°
2026-04-14 19:40 22.66492 88.46729 59812 ft 1187 kts 127°
2026-04-14 19:41 22.56919 88.61257 59892 ft 1183 kts 127°
2026-04-14 19:41 22.47443 88.75700 59895 ft 1183 kts 127°
2026-04-14 19:42 22.37926 88.90198 59874 ft 1181 kts 127°
2026-04-14 19:42 22.29949 89.02319 59871 ft 1182 kts 127°
2026-04-14 19:43 22.18858 89.19125 59879 ft 1181 kts 127°
2026-04-14 19:43 22.10855 89.31220 59883 ft 1182 kts 127°
2026-04-14 19:44 22.01346 89.45553 59887 ft 1181 kts 127°
2026-04-14 19:44 21.91765 89.59958 59893 ft 1182 kts 127°
2026-04-14 19:45 21.82171 89.74344 59908 ft 1181 kts 127°
2026-04-14 19:45 21.72579 89.88689 59885 ft 1180 kts 127°
2026-04-14 19:46 21.62974 90.03015 59891 ft 1181 kts 127°
2026-04-14 19:46 21.53420 90.17230 59895 ft 1180 kts 127°
2026-04-14 19:47 21.43787 90.31524 59870 ft 1180 kts 127°
2026-04-14 19:47 21.34155 90.45780 59876 ft 1180 kts 127°
2026-04-14 19:48 21.24499 90.60035 59880 ft 1179 kts 127°
2026-04-14 19:48 21.14838 90.74261 59874 ft 1181 kts 127°
2026-04-14 19:49 21.05173 90.88457 59853 ft 1176 kts 127°
2026-04-14 19:49 20.95517 91.02605 59853 ft 1176 kts 127°
2026-04-14 19:50 20.85842 91.16744 59855 ft 1178 kts 127°
2026-04-14 19:50 20.76221 91.30770 59834 ft 1174 kts 127°
2026-04-14 19:51 20.66560 91.44820 59841 ft 1174 kts 127°
2026-04-14 19:51 20.56874 91.58871 59845 ft 1171 kts 127°
2026-04-14 19:52 20.47197 91.72876 59846 ft 1173 kts 127°
2026-04-14 19:52 20.37560 91.86788 59840 ft 1168 kts 127°
2026-04-14 19:53 20.27896 92.00707 59841 ft 1165 kts 127°
2026-04-14 19:53 20.18215 92.14616 59840 ft 1168 kts 128°
2026-04-14 19:54 20.03700 92.35410 59841 ft 1167 kts 128°
2026-04-14 19:55 19.94043 92.49204 59836 ft 1168 kts 128°
2026-04-14 19:55 19.84330 92.63046 59837 ft 1167 kts 128°
2026-04-14 19:56 19.74609 92.76867 59830 ft 1168 kts 128°
2026-04-14 19:56 19.64890 92.90653 59833 ft 1167 kts 128°
2026-04-14 19:57 19.55150 93.04438 59836 ft 1167 kts 128°
2026-04-14 19:57 19.45455 93.18126 59836 ft 1169 kts 128°
2026-04-14 19:58 19.35696 93.31876 59837 ft 1164 kts 128°
2026-04-14 19:58 19.25940 93.45589 59831 ft 1165 kts 128°
2026-04-14 19:59 19.16174 93.59287 59830 ft 1167 kts 128°
2026-04-14 19:59 19.06402 93.72961 59811 ft 1165 kts 128°
2026-04-14 20:00 18.96640 93.86592 59825 ft 1163 kts 128°
2026-04-14 20:00 18.86853 94.00228 59822 ft 1162 kts 128°
2026-04-14 20:01 18.77057 94.13847 59826 ft 1164 kts 128°
2026-04-14 20:01 18.67327 94.27344 59829 ft 1163 kts 128°
2026-04-14 20:02 18.57512 94.40930 59842 ft 1163 kts 128°
2026-04-14 20:02 18.47690 94.54498 59854 ft 1164 kts 128°
2026-04-14 20:03 18.37863 94.68043 59843 ft 1165 kts 128°
2026-04-14 20:03 18.28029 94.81569 59826 ft 1162 kts 128°
2026-04-14 20:04 18.18193 94.95070 59813 ft 1161 kts 128°
2026-04-14 20:04 18.08318 95.08595 59800 ft 1163 kts 128°
2026-04-14 20:05 17.98505 95.22007 59761 ft 1163 kts 128°
2026-04-14 20:05 17.88653 95.35447 59800 ft 1162 kts 128°
2026-04-14 20:06 17.78770 95.48900 59797 ft 1162 kts 128°
2026-04-14 20:06 17.68880 95.62336 59804 ft 1164 kts 128°
2026-04-14 20:07 17.58987 95.75749 59804 ft 1160 kts 128°
2026-04-14 20:07 17.49087 95.89144 59813 ft 1161 kts 128°
2026-04-14 20:08 17.39260 96.02414 59801 ft 1161 kts 128°
2026-04-14 20:08 17.29353 96.15765 59794 ft 1159 kts 128°
2026-04-14 20:09 17.19465 96.29066 59792 ft 1158 kts 128°
2026-04-14 20:09 17.09553 96.42371 59790 ft 1158 kts 128°
2026-04-14 20:10 16.99629 96.55667 59815 ft 1160 kts 128°
2026-04-14 20:10 16.89703 96.68942 59814 ft 1156 kts 128°
2026-04-14 20:11 16.79787 96.82177 59819 ft 1157 kts 128°
2026-04-14 20:11 16.69937 96.95299 59802 ft 1154 kts 129°
2026-04-14 20:12 16.60006 97.08504 59819 ft 1154 kts 129°
2026-04-14 20:12 16.50097 97.21655 59820 ft 1152 kts 129°
2026-04-14 20:13 16.40169 97.34806 59819 ft 1154 kts 129°
2026-04-14 20:13 16.30248 97.47925 59827 ft 1153 kts 129°
2026-04-14 20:14 16.20312 97.61040 59829 ft 1152 kts 129°
2026-04-14 20:14 16.10472 97.74004 59832 ft 1149 kts 129°
2026-04-14 20:15 16.00557 97.87043 59826 ft 1147 kts 129°
2026-04-14 20:15 15.90628 98.00079 59828 ft 1149 kts 129°
2026-04-14 20:16 15.80691 98.13101 59810 ft 1149 kts 129°
2026-04-14 20:16 15.70757 98.26096 59815 ft 1148 kts 129°
2026-04-14 20:17 15.60881 98.38992 59837 ft 1147 kts 129°
2026-04-14 20:17 15.50930 98.51966 59862 ft 1148 kts 129°
2026-04-14 20:18 15.40971 98.64925 59864 ft 1148 kts 129°
2026-04-14 20:18 15.31009 98.77868 59857 ft 1149 kts 129°
2026-04-14 20:19 15.21036 98.90801 59846 ft 1147 kts 129°
2026-04-14 20:19 15.11059 99.03720 59820 ft 1149 kts 129°
2026-04-14 20:20 15.01069 99.16633 59789 ft 1149 kts 129°
2026-04-14 20:20 14.91080 99.29523 59774 ft 1148 kts 129°
2026-04-14 20:21 14.81138 99.42331 59775 ft 1148 kts 129°
2026-04-14 20:21 14.71128 99.55207 59751 ft 1148 kts 129°
2026-04-14 20:22 14.61126 99.68051 59764 ft 1148 kts 129°
2026-04-14 20:22 14.51117 99.80884 59763 ft 1146 kts 129°
2026-04-14 20:23 14.41084 99.93726 59761 ft 1147 kts 129°
2026-04-14 20:23 14.31058 100.06539 59766 ft 1147 kts 129°
2026-04-14 20:24 14.21028 100.19336 59764 ft 1147 kts 129°
2026-04-14 20:24 14.11042 100.32059 59770 ft 1148 kts 129°
2026-04-14 20:25 14.00998 100.44835 59776 ft 1148 kts 129°
2026-04-14 20:25 13.90944 100.57610 59783 ft 1147 kts 128°
2026-04-14 20:26 13.82687 100.71654 59988 ft 1152 kts 114°
2026-04-14 20:26 13.76170 100.86698 60007 ft 1151 kts 118°
2026-04-14 20:27 13.69009 101.01435 59987 ft 1151 kts 117°
2026-04-14 20:27 13.61859 101.16069 59947 ft 1151 kts 117°
2026-04-14 20:28 13.54654 101.30779 59904 ft 1152 kts 117°
2026-04-14 20:28 13.47443 101.45484 59878 ft 1151 kts 117°
2026-04-14 20:29 13.40229 101.60173 59864 ft 1149 kts 117°
2026-04-14 20:29 13.33059 101.74745 59827 ft 1139 kts 117°
2026-04-14 20:29 13.29524 101.81921 59656 ft 1112 kts 117°
2026-04-14 20:30 13.26073 101.88920 59451 ft 1086 kts 117°
2026-04-14 20:30 13.22697 101.95761 59012 ft 1064 kts 117°
2026-04-14 20:30 13.19385 102.02467 58446 ft 1043 kts 117°
2026-04-14 20:30 13.16130 102.09051 57863 ft 1023 kts 117°
2026-04-14 20:31 13.14009 102.13342 57489 ft 1010 kts 117°
2026-04-14 20:31 13.10853 102.19714 56914 ft 990 kts 117°
2026-04-14 20:31 13.06770 102.27960 56160 ft 964 kts 117°
2026-04-14 20:31 13.04731 102.32071 55794 ft 951 kts 117°
2026-04-14 20:32 13.01799 102.37985 55233 ft 931 kts 117°
2026-04-14 20:32 12.98896 102.43830 54664 ft 910 kts 117°
2026-04-14 20:32 12.96043 102.49555 54062 ft 888 kts 120°
2026-04-14 20:32 12.92874 102.54884 53521 ft 864 kts 122°
2026-04-14 20:33 12.89790 102.60091 52847 ft 843 kts 122°
2026-04-14 20:33 12.86772 102.65156 52148 ft 821 kts 122°
2026-04-14 20:33 12.83821 102.70097 51452 ft 799 kts 122°
2026-04-14 20:34 12.78178 102.79548 50037 ft 755 kts 122°
2026-04-14 20:34 12.75471 102.84078 49335 ft 733 kts 122°
2026-04-14 20:34 12.72877 102.88416 48665 ft 712 kts 122°
2026-04-14 20:34 12.70330 102.92673 47949 ft 691 kts 123°
2026-04-14 20:35 12.67858 102.96808 47231 ft 670 kts 122°
2026-04-14 20:35 12.65453 103.00823 46499 ft 650 kts 122°
2026-04-14 20:35 12.63128 103.04704 45795 ft 629 kts 122°
2026-04-14 20:35 12.60875 103.08469 45075 ft 609 kts 122°
2026-04-14 20:36 12.58687 103.12118 44366 ft 590 kts 122°
2026-04-14 20:36 12.56574 103.15641 43454 ft 569 kts 122°
2026-04-14 20:36 12.54537 103.19038 42593 ft 553 kts 123°
2026-04-14 20:36 12.52525 103.22389 41817 ft 551 kts 122°
2026-04-14 20:37 12.50549 103.25680 41066 ft 547 kts 122°
2026-04-14 20:37 12.48563 103.28990 40315 ft 542 kts 122°
2026-04-14 20:37 12.46589 103.32277 39600 ft 537 kts 122°
2026-04-14 20:37 12.44639 103.35521 38882 ft 533 kts 122°
2026-04-14 20:38 12.42703 103.38742 38164 ft 528 kts 123°
2026-04-14 20:38 12.40787 103.41929 37369 ft 523 kts 123°
2026-04-14 20:38 12.38892 103.45079 36596 ft 517 kts 122°
2026-04-14 20:38 12.37022 103.48186 35857 ft 509 kts 122°
2026-04-14 20:39 12.35179 103.51245 35127 ft 502 kts 122°
2026-04-14 20:39 12.33362 103.54267 34424 ft 496 kts 122°
2026-04-14 20:39 12.31565 103.57249 33731 ft 490 kts 122°
2026-04-14 20:39 12.29789 103.60197 32955 ft 484 kts 122°
2026-04-14 20:40 12.28033 103.63112 32227 ft 479 kts 122°
2026-04-14 20:40 12.26317 103.65959 31493 ft 474 kts 122°
2026-04-14 20:40 12.24598 103.68808 30778 ft 468 kts 122°
2026-04-14 20:40 12.22898 103.71627 30092 ft 463 kts 122°
2026-04-14 20:41 12.21217 103.74414 29314 ft 458 kts 122°
2026-04-14 20:41 12.19557 103.77174 28522 ft 453 kts 121°
2026-04-14 20:41 12.18006 103.79955 27743 ft 448 kts 118°
2026-04-14 20:41 12.16652 103.82808 26990 ft 443 kts 114°
2026-04-14 20:42 12.15462 103.85696 26272 ft 439 kts 112°
2026-04-14 20:42 12.14318 103.88570 25559 ft 434 kts 112°
2026-04-14 20:42 12.12067 103.94235 24180 ft 426 kts 112°
2026-04-14 20:43 12.10953 103.97025 23510 ft 422 kts 113°
2026-04-14 20:43 12.09849 103.99783 22756 ft 418 kts 112°
2026-04-14 20:43 12.08752 104.02522 21992 ft 414 kts 112°
2026-04-14 20:43 12.07642 104.05294 21249 ft 426 kts 113°
2026-04-14 20:44 12.06523 104.08088 20507 ft 422 kts 113°
2026-04-14 20:44 12.05415 104.10853 19784 ft 419 kts 112°
2026-04-14 20:44 12.04326 104.13568 19096 ft 416 kts 113°
2026-04-14 20:44 12.03234 104.16295 18446 ft 412 kts 112°
2026-04-14 20:45 12.02158 104.18975 18115 ft 404 kts 112°
2026-04-14 20:45 12.01091 104.21630 17773 ft 406 kts 113°
2026-04-14 20:45 12.00017 104.24303 17005 ft 406 kts 112°
2026-04-14 20:45 11.98957 104.26947 16262 ft 399 kts 112°
2026-04-14 20:46 11.97911 104.29554 15544 ft 394 kts 112°
2026-04-14 20:46 11.96875 104.32130 14851 ft 390 kts 112°
2026-04-14 20:46 11.95849 104.34681 14162 ft 387 kts 112°
2026-04-14 20:46 11.94830 104.37214 13448 ft 384 kts 111°
2026-04-14 20:47 11.93821 104.39730 12693 ft 381 kts 112°
2026-04-14 20:47 11.92815 104.42231 11939 ft 379 kts 112°
2026-04-14 20:47 11.91817 104.44708 11225 ft 376 kts 112°
2026-04-14 20:47 11.90837 104.47143 10517 ft 374 kts 112°
2026-04-14 20:48 11.89848 104.49599 9815 ft 373 kts 112°
2026-04-14 20:48 11.88864 104.52039 9062 ft 371 kts 112°
2026-04-14 20:48 11.87882 104.54474 8322 ft 370 kts 112°
2026-04-14 20:48 11.86904 104.56899 7588 ft 369 kts 112°
2026-04-14 20:49 11.85931 104.59314 7026 ft 364 kts 112°
2026-04-14 20:49 11.84978 104.61679 6597 ft 356 kts 112°
2026-04-14 20:49 11.84059 104.63958 6307 ft 346 kts 112°
2026-04-14 20:49 11.83161 104.66187 6127 ft 333 kts 112°
2026-04-14 20:50 11.82170 104.68273 6002 ft 320 kts 117°
2026-04-14 20:50 11.81137 104.70276 5555 ft 319 kts 117°
2026-04-14 20:50 11.80148 104.72279 5266 ft 312 kts 116°
2026-04-14 20:50 11.79210 104.74236 5099 ft 302 kts 116°
2026-04-14 20:51 11.78309 104.76125 4987 ft 290 kts 116°
2026-04-14 20:51 11.77431 104.77956 4668 ft 287 kts 116°
2026-04-14 20:51 11.76544 104.79793 4223 ft 288 kts 116°
2026-04-14 20:51 11.75654 104.81626 3755 ft 287 kts 116°
2026-04-14 20:52 11.74900 104.83468 3391 ft 283 kts 110°
2026-04-14 20:52 11.74300 104.85350 3182 ft 275 kts 104°
2026-04-14 20:52 11.73929 104.87223 3047 ft 264 kts 102°
2026-04-14 20:52 11.73570 104.89018 2915 ft 251 kts 104°
2026-04-14 20:53 11.73152 104.90706 2838 ft 238 kts 108°
2026-04-14 20:53 11.72598 104.92281 2855 ft 235 kts 113°
2026-04-14 20:53 11.71941 104.93804 2852 ft 234 kts 117°
2026-04-14 20:53 11.71176 104.95259 2857 ft 232 kts 124°
2026-04-14 20:54 11.70273 104.96605 2869 ft 230 kts 128°
2026-04-14 20:54 11.69146 104.97749 2878 ft 232 kts 156°
2026-04-14 20:54 11.67617 104.97932 2941 ft 224 kts 198°
2026-04-14 20:54 11.66313 104.97043 3006 ft 232 kts 225°
2026-04-14 20:55 11.65228 104.95802 2770 ft 238 kts 228°
2026-04-14 20:55 11.64170 104.94516 2395 ft 239 kts 228°
2026-04-14 20:55 11.63089 104.93253 2135 ft 232 kts 227°
2026-04-14 20:55 11.62023 104.92076 1788 ft 218 kts 224°
2026-04-14 20:56 11.61020 104.90959 1597 ft 209 kts 225°
2026-04-14 20:56 11.60046 104.89875 1328 ft 206 kts 224°
2026-04-14 20:56 11.59038 104.88846 1051 ft 208 kts 223°
2026-04-14 20:56 11.58039 104.87810 958 ft 205 kts 223°
2026-04-14 20:57 11.57025 104.86779 812 ft 202 kts 221°
2026-04-14 20:57 11.55943 104.85732 257 ft 219 kts 222°
2026-04-14 20:57 11.54905 104.84666 49 ft 199 kts 223°
2026-04-14 20:57 11.54184 104.83930 50 ft 92 kts 225°
2026-04-14 20:58 11.53875 104.83613 49 ft 44 kts 224°
2026-04-14 20:58 11.53726 104.83484 47 ft 16 kts 205°
2026-04-14 20:58 11.53727 104.83445 49 ft 4 kts 333°
2026-04-14 20:58 11.53755 104.83473 47 ft 12 kts 50°
2026-04-14 20:59 11.53849 104.83578 49 ft 24 kts 46°
2026-04-14 20:59 11.53968 104.83705 50 ft 25 kts 44°
2026-04-14 20:59 11.54080 104.83811 50 ft 19 kts 28°
2026-04-14 20:59 11.54182 104.83760 49 ft 18 kts 320°
2026-04-14 21:00 11.54280 104.83777 47 ft 16 kts 43°
2026-04-14 21:00 11.54366 104.83865 48 ft 19 kts 47°
2026-04-14 21:00 11.54444 104.83947 48 ft 15 kts 45°
2026-04-14 21:00 11.54521 104.84027 48 ft 16 kts 45°
2026-04-14 21:01 11.54604 104.84112 47 ft 18 kts 45°
2026-04-14 21:01 11.54701 104.84210 47 ft 21 kts 45°
2026-04-14 21:01 11.54800 104.84313 47 ft 19 kts 45°
2026-04-14 21:01 11.54882 104.84399 46 ft 15 kts 46°
2026-04-14 21:02 11.54949 104.84469 47 ft 12 kts 46°
2026-04-14 21:02 11.55000 104.84523 47 ft 9 kts 45°
2026-04-14 21:02 11.55042 104.84548 47 ft 5 kts 358°
2026-04-14 21:02 11.55063 104.84528 46 ft 5 kts 317°
2026-04-14 21:03 11.55097 104.84493 45 ft 9 kts 315°
2026-04-14 21:03 11.55127 104.84464 47 ft 2 kts 316°
2026-04-14 21:03 11.55136 104.84455 47 ft 2 kts 316°
2026-04-14 21:03 11.55139 104.84452 47 ft 0 kts 316°